N3PB Weather Reports


time (UTC)temp
C
wind
direction
speed
KPH
gust
KPH
rain 1hr
cm
rain 24hr
cm
rain mn
cm
humidity
%
barometer
mb
20260507224635 14 263 0.0 0.0 0.00 0.61 0.00 63 1010.5
20260507224138 14 256 0.0 0.0 0.00 0.61 0.00 61 1010.5
20260507223638 15 291 0.0 0.0 0.00 0.61 0.00 60 1010.6
20260507223136 15 290 0.0 0.0 0.00 0.61 0.00 60 1010.5
20260507222644 15 298 0.0 0.0 0.00 0.61 0.00 62 1010.5
20260507222138 15 175 0.0 0.0 0.00 0.61 0.00 63 1010.2
20260507221638 15 342 0.0 0.0 0.00 0.61 0.00 62 1010.3
20260507221138 14 342 0.0 0.0 0.00 0.61 0.00 63 1010.3
20260507220635 14 317 0.0 0.0 0.00 0.61 0.00 61 1010.1
20260507220135 14 77 0.0 0.0 0.00 0.61 0.00 65 1010.3
20260507215635 15 192 0.0 0.0 0.00 0.61 0.00 64 1010.2
20260507215138 15 74 0.0 0.0 0.00 0.61 0.00 63 1010.1
20260507214644 15 313 0.0 0.0 0.00 0.61 0.00 64 1010.0
20260507214138 15 215 0.0 0.0 0.00 0.61 0.00 67 1009.9
20260507213635 15 185 0.0 0.0 0.00 0.61 0.00 66 1009.9
20260507213141 15 223 0.0 0.0 0.00 0.61 0.00 65 1009.8
20260507212635 15 307 0.0 0.0 0.00 0.61 0.00 64 1009.7
20260507212135 15 146 0.0 0.0 0.00 0.61 0.00 62 1009.7
20260507211635 15 286 0.0 0.0 0.00 0.61 0.00 62 1009.6
20260507211142 15 249 0.0 0.0 0.00 0.61 0.00 62 1009.4
20260507210635 15 285 0.0 0.0 0.00 0.61 0.00 66 1009.4
20260507210135 15 338 0.0 0.0 0.00 0.61 0.00 64 1009.3
20260507205635 15 270 0.0 0.0 0.00 0.61 0.00 65 1009.5
20260507205138 15 333 0.0 0.0 0.00 0.61 0.00 66 1009.5
20260507204638 15 261 0.0 0.0 0.00 0.61 0.00 64 1009.3
20260507204135 15 291 0.0 0.0 0.00 0.61 0.00 66 1009.2
20260507203638 15 264 0.0 0.0 0.00 0.61 0.00 66 1009.1
20260507203144 15 306 0.0 0.0 0.00 0.61 0.00 66 1009.0
20260507202635 15 245 0.0 0.0 0.00 0.61 0.00 66 1009.2
20260507202141 15 248 0.0 0.0 0.00 0.61 0.00 66 1009.2
20260507201638 15 124 0.0 0.0 0.00 0.61 0.00 68 1009.1
20260507201138 15 261 0.0 0.0 0.00 0.61 0.00 67 1009.0
20260507200638 15 182 0.0 0.0 0.00 0.61 0.00 70 1009.0
20260507200138 15 311 0.0 0.0 0.00 0.61 0.00 71 1009.0
20260507195638 15 132 0.0 0.0 0.00 0.61 0.00 68 1009.2
20260507195138 15 247 0.0 0.0 0.00 0.61 0.00 69 1009.4
20260507194635 15 257 0.0 0.0 0.00 0.61 0.00 72 1009.3
20260507194135 15 235 0.0 0.0 0.00 0.61 0.00 73 1009.4
20260507193638 14 51 0.0 0.0 0.00 0.61 0.00 75 1009.6
20260507193138 13 257 0.0 0.0 0.00 0.61 0.00 81 1009.7
20260507192644 13 255 0.0 0.0 0.00 0.61 0.00 77 1009.7
20260507192144 13 289 0.0 0.0 0.00 0.61 0.00 78 1009.8
20260507191641 13 225 0.0 0.0 0.00 0.61 0.00 78 1010.0
20260507191144 13 300 0.0 0.0 0.00 0.61 0.00 79 1010.2
20260507190641 12 194 0.0 0.0 0.00 0.61 0.00 80 1010.1
20260507190135 12 209 0.0 0.0 0.00 0.61 0.00 82 1010.2
20260507185638 12 212 0.0 0.0 0.00 0.61 0.00 85 1010.2
20260507185138 12 214 0.0 0.0 0.00 0.61 0.00 82 1010.3
20260507184635 12 214 0.0 0.0 0.00 0.61 0.00 82 1010.3
20260507184135 12 213 0.0 0.0 0.00 0.61 0.00 82 1010.4
20260507183644 12 217 0.0 0.0 0.00 0.61 0.00 82 1010.4
20260507183141 12 222 0.0 0.0 0.00 0.61 0.00 82 1010.4
20260507182638 12 222 0.0 0.0 0.00 0.61 0.00 84 1010.5
20260507182135 12 221 0.0 0.0 0.00 0.61 0.00 84 1010.3
20260507181638 12 178 0.0 0.0 0.00 0.61 0.00 84 1010.5
20260507181138 12 177 0.0 0.0 0.00 0.61 0.00 85 1010.4
20260507180638 11 177 0.0 0.0 0.00 0.61 0.00 83 1010.5
20260507180138 11 201 0.0 0.0 0.00 0.61 0.00 85 1010.4
20260507175638 11 201 0.0 0.0 0.00 0.61 0.00 84 1010.4
20260507175135 11 201 0.0 0.0 0.00 0.61 0.00 85 1010.5
20260507174635 11 201 0.0 0.0 0.00 0.61 0.00 85 1010.4
20260507174135 11 201 0.0 0.0 0.00 0.61 0.00 86 1010.4
20260507173638 11 201 0.0 0.0 0.00 0.61 0.00 85 1010.5
20260507173138 11 202 0.0 0.0 0.00 0.61 0.00 85 1010.5
20260507172635 11 202 0.0 0.0 0.00 0.61 0.00 84 1010.3
20260507172138 11 201 0.0 0.0 0.00 0.61 0.00 85 1010.5
20260507171641 11 201 0.0 0.0 0.00 0.61 0.00 85 1010.6
20260507171135 11 227 0.0 0.0 0.00 0.61 0.00 85 1010.6
20260507170638 11 227 0.0 0.0 0.00 0.61 0.00 85 1010.7
20260507170141 11 264 0.0 0.0 0.00 0.61 0.00 85 1010.6
20260507165638 11 195 0.0 0.0 0.00 0.64 0.00 85 1010.6
20260507165138 11 194 0.0 0.0 0.00 0.64 0.00 85 1010.6
20260507164635 11 96 0.0 0.0 0.00 0.64 0.00 87 1010.7
20260507164138 11 271 0.0 0.0 0.00 0.66 0.00 86 1010.7
20260507163641 11 259 0.0 0.0 0.00 0.66 0.00 85 1010.7
20260507163138 11 288 0.0 0.0 0.00 0.66 0.00 87 1010.7
20260507122611 11 188 0.0 0.0 0.00 0.81 0.00 91 1011.5
20260507122111 11 188 0.0 0.0 0.00 0.81 0.00 91 1011.5
20260507121611 11 188 0.0 0.0 0.00 0.81 0.00 91 1011.4
20260507121111 11 188 0.0 0.0 0.00 0.81 0.00 91 1011.6
20260507120620 11 188 0.0 0.0 0.00 0.81 0.00 91 1011.4
20260507120117 11 188 0.0 0.0 0.00 0.81 0.00 91 1011.2
20260507115611 11 188 0.0 0.0 0.00 0.81 0.00 91 1011.2
20260507115111 11 188 0.0 0.0 0.00 0.81 0.00 92 1011.4
20260507114611 11 188 0.0 0.0 0.00 0.81 0.00 92 1011.3
20260507114117 11 188 0.0 0.0 0.00 0.81 0.00 93 1011.1
20260507113615 12 187 0.0 0.0 0.00 0.81 0.00 93 1011.3
20260507113111 12 187 0.0 0.0 0.00 0.81 0.00 93 1011.2
20260507112611 12 187 0.0 0.0 0.00 0.81 0.00 93 1011.3
20260507112114 12 187 0.0 0.0 0.00 0.81 0.00 93 1011.5
20260507111611 12 187 0.0 0.0 0.00 0.81 0.00 93 1011.1
20260507111111 12 187 0.0 0.0 0.00 0.81 0.00 93 1011.1
20260507110611 12 187 0.0 0.0 0.00 0.81 0.00 94 1010.7
20260507110114 12 187 0.0 0.0 0.00 0.81 0.00 94 1010.7
20260507105612 12 187 0.0 0.0 0.00 0.81 0.00 94 1010.8
20260507105111 12 187 0.0 0.0 0.00 0.81 0.00 93 1010.7
20260507104611 12 187 0.0 0.0 0.00 0.81 0.00 93 1010.8
20260507104111 12 187 0.0 0.0 0.00 0.81 0.00 93 1010.6
20260507103614 12 187 0.0 0.0 0.00 0.81 0.00 93 1010.6
20260507103111 12 187 0.0 0.0 0.00 0.81 0.00 93 1010.8
20260507102611 12 187 0.0 0.0 0.00 0.81 0.00 93 1010.4
20260507102119 12 187 0.0 0.0 0.00 0.81 0.00 93 1010.5
20260507101611 12 187 0.0 0.0 0.00 0.81 0.00 93 1010.7
20260507101114 12 187 0.0 0.0 0.00 0.81 0.00 93 1010.5
20260507100611 12 187 0.0 0.0 0.00 0.81 0.00 93 1010.5
20260507100114 12 187 0.0 0.0 0.00 0.81 0.00 93 1010.6
20260507095614 12 187 0.0 0.0 0.00 0.81 0.00 93 1010.5
20260507095114 12 190 0.0 0.0 0.00 0.81 0.00 93 1010.8
20260507094611 12 190 0.0 0.0 0.00 0.81 0.00 93 1010.9
20260507094115 12 191 0.0 0.0 0.00 0.81 0.00 93 1010.7
20260507093614 12 191 0.0 0.0 0.00 0.81 0.00 93 1011.0
20260507093111 12 211 0.0 0.0 0.00 0.81 0.00 93 1011.2
20260507092620 12 211 0.0 0.0 0.00 0.81 0.00 93 1010.8
20260507092114 12 211 0.0 0.0 0.00 0.81 0.00 93 1010.6
20260507091614 12 211 0.0 0.0 0.00 0.81 0.00 93 1010.7
20260507091120 12 217 0.0 0.0 0.00 0.81 0.00 92 1010.9
20260507090616 12 219 0.0 0.0 0.00 0.81 0.00 92 1010.9
20260507090111 12 290 0.0 0.0 0.00 0.81 0.00 92 1010.8
20260507085613 12 290 0.0 0.0 0.00 0.81 0.00 92 1010.4
20260507085111 12 289 0.0 0.0 0.00 0.81 0.00 92 1010.8
20260507084614 12 289 0.0 0.0 0.00 0.81 0.00 92 1010.2
20260507084111 12 289 0.0 0.0 0.00 0.81 0.00 91 1010.3
20260507083611 12 289 0.0 0.0 0.00 0.81 0.00 91 1010.7
20260507083113 12 290 0.0 0.0 0.00 0.81 0.00 91 1010.7
20260507082610 12 293 0.0 0.0 0.00 0.81 0.00 90 1010.7
20260507082117 12 302 0.0 0.0 0.00 0.81 0.00 90 1010.8
20260507081619 12 194 0.0 0.0 0.00 0.81 0.00 90 1011.1
20260507081111 12 192 0.0 0.0 0.00 0.81 0.00 90 1011.1
20260507080610 12 180 0.0 0.0 0.00 0.81 0.00 91 1010.9
20260507080111 13 208 0.0 0.0 0.00 0.81 0.00 91 1011.2
20260507075619 13 207 0.0 0.0 0.00 0.81 0.00 91 1011.1
20260507075119 13 229 0.0 0.0 0.00 0.81 0.00 90 1010.9
20260507074611 13 302 0.0 0.0 0.00 0.81 0.00 90 1010.8
20260507074111 13 315 0.0 0.0 0.00 0.81 0.00 90 1010.4
20260507073617 13 306 0.0 0.0 0.00 0.81 0.00 90 1010.5
20260507073110 13 304 0.0 0.0 0.00 0.81 0.00 90 1010.8
20260507072610 13 271 0.0 0.0 0.00 0.81 0.00 91 1011.1
20260507072117 13 290 0.0 0.0 0.00 0.81 0.00 91 1011.1
20260507071613 13 292 0.0 0.0 0.00 0.81 0.00 91 1010.9
20260507071110 13 297 0.0 0.0 0.00 0.81 0.00 92 1011.4
20260507070611 13 244 0.0 0.0 0.00 0.81 0.00 92 1011.1
20260507070111 13 256 0.0 0.0 0.00 0.81 0.00 92 1011.2
20260507065613 13 303 0.0 0.0 0.00 0.81 0.00 93 1011.1
20260507065113 13 275 0.0 0.0 0.00 0.81 0.00 93 1011.0
20260507064611 13 292 0.0 0.0 0.00 0.81 0.00 93 1010.4
20260507064113 13 302 0.0 0.0 0.00 0.81 0.00 93 1011.2
20260507063616 13 288 0.0 0.0 0.00 0.81 0.00 94 1011.2
20260507063113 13 296 0.0 0.0 0.00 0.81 0.00 94 1010.9
20260507062611 13 238 0.0 0.0 0.00 0.81 0.00 94 1011.4
20260507062114 13 257 0.0 0.0 0.00 0.81 0.00 94 1011.4
20260507061610 13 288 0.0 0.0 0.00 0.81 0.00 95 1011.5
20260507061111 13 288 0.0 0.0 0.00 0.81 0.00 95 1011.2
20260507060614 13 291 0.0 0.0 0.00 0.81 0.00 95 1011.1
20260507060113 14 300 0.0 0.0 0.00 0.81 0.00 95 1011.2
20260507055610 14 286 0.0 0.0 0.00 0.81 0.00 95 1010.6
20260507055110 14 294 0.0 0.0 0.00 0.81 0.00 96 1010.6
20260507054611 14 296 0.0 0.0 0.00 0.81 0.00 96 1011.0
20260507054111 14 211 0.0 0.0 0.00 0.81 0.00 96 1011.1
20260507053610 15 234 0.0 0.0 0.00 0.81 0.00 97 1011.6
20260507053110 15 273 0.0 0.0 0.00 0.81 0.00 97 1011.9
20260507052620 15 226 0.0 0.0 0.00 0.81 0.00 97 1011.5
20260507052110 15 225 0.0 0.0 0.00 0.81 0.00 97 1011.6
20260507051610 15 292 0.0 0.0 0.00 0.81 0.00 97 1011.9
20260507051112 15 294 0.0 0.0 0.00 0.81 0.00 97 1011.8
20260507050617 15 286 0.0 0.0 0.03 0.81 0.00 97 1012.0
20260507050111 15 208 0.0 0.0 0.03 0.81 0.00 96 1012.0
20260507045610 15 269 0.0 0.0 0.03 0.81 0.00 96 1011.8
20260507045111 15 269 0.0 0.0 0.03 0.81 0.00 96 1011.8
20260507044611 15 285 0.0 0.0 0.03 0.81 0.00 96 1011.7
20260507044113 15 286 0.0 0.0 0.03 0.81 0.00 96 1011.4
20260507043616 15 286 0.0 0.0 0.03 0.81 0.00 96 1011.0
20260507043120 15 286 0.0 0.0 0.03 0.81 0.00 95 1011.0
20260507042610 15 286 0.0 0.0 0.03 0.81 0.00 96 1010.9
20260507042110 15 286 0.0 0.0 0.03 0.81 0.00 95 1011.3
20260507041616 15 285 0.0 0.0 0.03 0.81 0.00 95 1011.1
20260507041111 15 285 0.0 0.0 0.03 0.81 0.00 95 1011.2
20260507040619 15 285 0.0 0.0 0.00 0.79 0.00 95 1011.5
20260507040111 15 285 0.0 0.0 0.00 0.79 0.00 95 1011.5
20260507035610 15 285 0.0 0.0 0.00 0.79 0.00 95 1011.5
20260507035110 15 285 0.0 0.0 0.03 0.79 0.00 95 1011.5
20260507034616 15 285 0.0 0.0 0.03 0.79 0.00 94 1011.4
20260507034110 15 285 0.0 0.0 0.03 0.79 0.00 95 1011.2
20260507033616 15 285 0.0 0.0 0.03 0.79 0.00 95 1011.3
20260507033110 15 285 0.0 0.0 0.03 0.79 0.00 95 1011.7
20260507032614 15 285 0.0 0.0 0.03 0.79 0.00 95 1012.0
20260507032110 15 285 0.0 0.0 0.03 0.79 0.00 95 1012.3
20260507031616 15 285 0.0 0.0 0.05 0.79 0.00 95 1012.6
20260507031113 15 285 0.0 0.0 0.05 0.79 0.00 95 1012.9
20260507030610 16 285 0.0 0.0 0.05 0.79 0.00 95 1013.0
20260507030116 16 290 0.0 0.0 0.08 0.79 0.00 95 1013.0
20260507025616 16 292 0.0 0.0 0.08 0.79 0.00 94 1013.1
20260507025116 16 259 0.0 0.0 0.10 0.76 0.00 94 1013.2
20260507024613 16 257 0.0 0.0 0.10 0.76 0.00 94 1013.0
20260507024113 16 257 0.0 0.0 0.13 0.76 0.00 94 1012.7
20260507023616 16 256 0.0 0.0 0.15 0.76 0.00 94 1012.4
20260507023119 16 259 0.0 0.0 0.20 0.76 0.00 94 1012.4
20260507022610 16 303 0.0 0.0 0.23 0.76 0.00 94 1012.3
20260507022113 16 275 0.0 0.0 0.25 0.76 0.00 94 1012.3
20260507021610 16 285 0.0 0.0 0.23 0.74 0.00 93 1012.0
20260507021110 16 286 0.0 0.0 0.25 0.74 0.00 93 1012.5
20260507020610 16 206 0.0 0.0 0.25 0.74 0.00 93 1012.2
20260507020113 16 310 0.0 0.0 0.28 0.74 0.00 94 1012.4
20260507015610 16 285 0.0 0.0 0.36 0.74 0.00 94 1012.3
20260507015110 16 240 0.0 0.0 0.36 0.66 0.00 93 1011.9
20260507014613 16 284 0.0 0.0 0.38 0.66 0.00 92 1012.0
20260507014120 16 283 0.0 0.0 0.36 0.64 0.00 92 1011.9
20260507013610 16 306 0.0 0.0 0.33 0.61 0.00 91 1011.8
20260507013116 16 290 0.0 0.0 0.28 0.56 0.00 89 1012.1
20260507012610 16 290 0.0 0.0 0.23 0.53 0.00 88 1011.7
20260507012113 16 291 0.0 0.0 0.23 0.48 0.00 87 1011.0
20260507011613 17 263 0.0 0.0 0.23 0.48 0.00 86 1011.1
20260507011113 17 300 0.0 0.0 0.20 0.46 0.00 86 1011.6
20260507010613 17 218 0.0 0.0 0.20 0.46 0.00 87 1011.5
20260507010110 18 288 0.0 0.0 0.15 0.41 0.00 87 1011.7
20260507005613 18 240 0.0 0.0 0.08 0.33 0.00 85 1011.9
20260507005110 18 325 0.0 0.0 0.03 0.28 0.00 83 1011.9
20260507004613 18 325 0.0 0.0 0.00 0.25 0.00 83 1011.7
20260507004113 18 328 0.0 0.0 0.00 0.25 0.00 82 1011.2
20260507003610 18 163 0.0 0.0 0.00 0.25 0.00 81 1011.2
20260507003113 18 215 0.0 0.0 0.00 0.25 0.00 80 1011.4
20260507002613 18 221 0.0 0.0 0.00 0.25 0.00 79 1011.4
20260507002114 18 195 0.0 0.0 0.00 0.25 0.00 80 1011.1
20260507001616 18 249 0.0 0.0 0.00 0.25 0.00 79 1011.0
20260507001110 18 290 0.0 0.0 0.00 0.25 0.00 79 1010.6
20260507000613 18 251 0.0 0.0 0.00 0.25 0.00 79 1010.6
20260507000110 18 278 0.0 0.0 0.00 0.25 0.00 79 1010.6
20260506235616 19 298 0.0 0.0 0.00 0.25 0.00 79 1010.4
20260506235110 19 239 0.0 0.0 0.00 0.25 0.00 79 1010.2
20260506234613 19 298 0.0 0.0 0.00 0.25 0.00 79 1010.3
20260506234110 19 261 0.0 0.0 0.00 0.25 0.00 78 1010.3
20260506233613 19 277 0.0 0.0 0.00 0.25 0.00 78 1010.3
20260506233113 19 271 0.0 0.0 0.00 0.25 0.00 78 1010.2
20260506232619 19 219 0.0 0.0 0.00 0.25 0.00 78 1010.5
20260506232110 19 280 0.0 0.0 0.00 0.25 0.00 78 1010.6
20260506231619 19 285 0.0 0.0 0.00 0.25 0.00 77 1010.7
20260506231110 19 278 0.0 0.0 0.00 0.25 0.00 77 1010.5
20260506230616 20 285 0.0 0.0 0.00 0.25 0.00 77 1010.7
20260506230110 20 257 0.0 0.0 0.00 0.25 0.00 76 1010.6
20260506225613 20 286 0.0 0.0 0.00 0.25 0.00 76 1010.0
20260506225113 20 307 0.0 0.0 0.00 0.25 0.00 77 1010.1